When you browse on this site, cookies collect data to enhance your experience and personalize the content and advertising you see.
Visit our Privacy Policy to learn more. By continuing to use the site, you agree to this use of cookies and data.

Meteo pe oră la Ternopil

Astăzi, 8 Iulie, Miercuri

Timp Temperatura Precipitaţii Vânt Presiune Umiditate
00:00 +10°C° 0 mm 3 m/s 733 mmHg 96%
01:00 +10°C° 0 mm 4 m/s 734 mmHg 95%
02:00 +10°C° 0 mm 4 m/s 733 mmHg 95%
03:00 +9°C° 0 mm 3 m/s 733 mmHg 95%
04:00 +9°C° 0 mm 3 m/s 734 mmHg 95%
05:00 +9°C° 0 mm 3 m/s 734 mmHg 96%
06:00 +10°C° 0 mm 3 m/s 734 mmHg 92%
07:00 +12°C° 0 mm 4 m/s 734 mmHg 89%
08:00 +14°C° 0 mm 4 m/s 734 mmHg 86%
09:00 +15°C° 0.1 mm 4 m/s 734 mmHg 80%
10:00 +17°C° 0.1 mm 4 m/s 735 mmHg 74%
11:00 +17°C° 0.1 mm 5 m/s 735 mmHg 68%
12:00 +17°C° 0 mm 5 m/s 735 mmHg 67%
13:00 +19°C° 0 mm 5 m/s 735 mmHg 65%
14:00 +19°C° 0 mm 4 m/s 735 mmHg 63%
15:00 +19°C° 0 mm 4 m/s 735 mmHg 65%
16:00 +19°C° 0 mm 4 m/s 735 mmHg 66%
17:00 +19°C° 0 mm 4 m/s 734 mmHg 68%
18:00 +18°C° 0 mm 3 m/s 734 mmHg 72%
19:00 +18°C° 0 mm 1 m/s 734 mmHg 77%
20:00 +14°C° 0 mm 0 m/s 734 mmHg 81%
21:00 +15°C° 0 mm 1 m/s 734 mmHg 82%
22:00 +14°C° 0 mm 2 m/s 734 mmHg 83%
23:00 +14°C° 0 mm 2 m/s 734 mmHg 84%

Mâine, 9 Iulie, Joi

Timp Temperatura Precipitaţii Vânt Presiune Umiditate
00:00 +14°C° 0 mm 2 m/s 735 mmHg 85%
01:00 +14°C° 0 mm 2 m/s 735 mmHg 86%
02:00 +13°C° 0 mm 3 m/s 735 mmHg 86%
03:00 +14°C° 0.4 mm 2 m/s 735 mmHg 89%
04:00 +14°C° 0.4 mm 2 m/s 735 mmHg 91%
05:00 +14°C° 0.4 mm 1 m/s 735 mmHg 94%
06:00 +14°C° 0.3 mm 1 m/s 735 mmHg 95%
07:00 +14°C° 0.3 mm 1 m/s 735 mmHg 95%
08:00 +14°C° 0.3 mm 1 m/s 735 mmHg 96%
09:00 +15°C° 0.1 mm 2 m/s 736 mmHg 92%
10:00 +16°C° 0.1 mm 2 m/s 736 mmHg 89%
11:00 +17°C° 0.1 mm 2 m/s 736 mmHg 86%
12:00 +18°C° 0.3 mm 3 m/s 737 mmHg 82%
13:00 +19°C° 0.3 mm 3 m/s 737 mmHg 78%
14:00 +20°C° 0.3 mm 3 m/s 737 mmHg 74%
15:00 +20°C° 0.3 mm 2 m/s 736 mmHg 76%
16:00 +19°C° 0.3 mm 2 m/s 736 mmHg 78%
17:00 +19°C° 0.3 mm 2 m/s 736 mmHg 80%
18:00 +18°C° 0.1 mm 2 m/s 736 mmHg 83%
19:00 +17°C° 0.1 mm 2 m/s 736 mmHg 86%
20:00 +18°C° 0.1 mm 1 m/s 736 mmHg 90%
21:00 +16°C° 0 mm 1 m/s 736 mmHg 91%
22:00 +15°C° 0 mm 2 m/s 736 mmHg 92%
23:00 +15°C° 0 mm 2 m/s 736 mmHg 94%

Poimâine, 10 Iulie, Vineri

Timp Temperatura Precipitaţii Vânt Presiune Umiditate
00:00 +14°C° 0 mm 2 m/s 736 mmHg 94%
01:00 +14°C° 0 mm 2 m/s 736 mmHg 94%
02:00 +14°C° 0 mm 2 m/s 736 mmHg 94%
03:00 +14°C° 0 mm 2 m/s 736 mmHg 94%
04:00 +13°C° 0 mm 3 m/s 736 mmHg 94%
05:00 +12°C° 0 mm 3 m/s 736 mmHg 94%
06:00 +14°C° 0 mm 3 m/s 736 mmHg 92%
07:00 +17°C° 0 mm 4 m/s 736 mmHg 89%
08:00 +18°C° 0 mm 4 m/s 736 mmHg 87%
09:00 +20°C° 0 mm 4 m/s 736 mmHg 83%
10:00 +22°C° 0 mm 4 m/s 736 mmHg 78%
11:00 +23°C° 0 mm 4 m/s 736 mmHg 74%
12:00 +25°C° 0 mm 4 m/s 736 mmHg 72%
13:00 +26°C° 0 mm 4 m/s 735 mmHg 71%
14:00 +27°C° 0 mm 4 m/s 735 mmHg 69%
15:00 +26°C° 0.1 mm 4 m/s 735 mmHg 71%
16:00 +26°C° 0.1 mm 4 m/s 735 mmHg 73%
17:00 +26°C° 0.1 mm 4 m/s 734 mmHg 75%
18:00 +25°C° 0.2 mm 4 m/s 734 mmHg 79%
19:00 +24°C° 0.2 mm 3 m/s 734 mmHg 84%
20:00 +21°C° 0.2 mm 3 m/s 734 mmHg 88%
21:00 +20°C° 0 mm 3 m/s 734 mmHg 88%
22:00 +20°C° 0 mm 3 m/s 734 mmHg 88%
23:00 +19°C° 0 mm 3 m/s 734 mmHg 88%

11 Iulie, Sâmbătă

Timp Temperatura Precipitaţii Vânt Presiune Umiditate
00:00 +18°C° 0 mm 3 m/s 734 mmHg 88%
01:00 +18°C° 0 mm 3 m/s 734 mmHg 88%
02:00 +17°C° 0 mm 3 m/s 734 mmHg 88%
03:00 +17°C° 0 mm 3 m/s 734 mmHg 90%
04:00 +17°C° 0 mm 3 m/s 734 mmHg 91%
05:00 +17°C° 0 mm 3 m/s 734 mmHg 92%
06:00 +19°C° 0 mm 3 m/s 734 mmHg 90%
07:00 +20°C° 0 mm 3 m/s 734 mmHg 87%
08:00 +22°C° 0 mm 3 m/s 734 mmHg 84%
09:00 +24°C° 0.2 mm 3 m/s 734 mmHg 80%
10:00 +26°C° 0.2 mm 3 m/s 734 mmHg 76%
11:00 +27°C° 0.2 mm 3 m/s 734 mmHg 72%
12:00 +28°C° 0.2 mm 2 m/s 734 mmHg 67%
13:00 +29°C° 0.2 mm 2 m/s 734 mmHg 62%
14:00 +30°C° 0.2 mm 2 m/s 734 mmHg 57%
15:00 +29°C° 0 mm 3 m/s 733 mmHg 62%
16:00 +29°C° 0 mm 3 m/s 733 mmHg 67%
17:00 +28°C° 0 mm 4 m/s 733 mmHg 72%
18:00 +27°C° 0.3 mm 4 m/s 733 mmHg 76%
19:00 +25°C° 0.3 mm 3 m/s 733 mmHg 81%
20:00 +24°C° 0.3 mm 3 m/s 733 mmHg 86%
21:00 +22°C° 0.6 mm 3 m/s 733 mmHg 87%
22:00 +21°C° 0.6 mm 2 m/s 733 mmHg 88%
23:00 +20°C° 0.6 mm 2 m/s 733 mmHg 89%

12 Iulie, Duminică

Timp Temperatura Precipitaţii Vânt Presiune Umiditate
00:00 +19°C° 0.2 mm 2 m/s 733 mmHg 90%
01:00 +19°C° 0.2 mm 3 m/s 733 mmHg 92%
02:00 +18°C° 0.2 mm 3 m/s 733 mmHg 94%
03:00 +17°C° 0.1 mm 4 m/s 733 mmHg 95%
04:00 +15°C° 0.1 mm 5 m/s 733 mmHg 95%
05:00 +14°C° 0.1 mm 6 m/s 733 mmHg 96%
06:00 +14°C° 0.1 mm 6 m/s 733 mmHg 96%
07:00 +12°C° 0.1 mm 7 m/s 734 mmHg 95%
08:00 +12°C° 0.1 mm 7 m/s 734 mmHg 95%
09:00 +12°C° 0.2 mm 7 m/s 734 mmHg 94%
10:00 +12°C° 0.2 mm 7 m/s 735 mmHg 92%
11:00 +12°C° 0.2 mm 7 m/s 736 mmHg 91%
12:00 +13°C° 0.2 mm 6 m/s 736 mmHg 90%
13:00 +13°C° 0.2 mm 5 m/s 736 mmHg 89%
14:00 +13°C° 0.2 mm 5 m/s 736 mmHg 88%
15:00 +14°C° 0 mm 4 m/s 737 mmHg 84%
16:00 +15°C° 0 mm 4 m/s 737 mmHg 80%
17:00 +17°C° 0 mm 4 m/s 737 mmHg 75%
18:00 +16°C° 0.1 mm 3 m/s 737 mmHg 80%
19:00 +14°C° 0.1 mm 3 m/s 737 mmHg 85%
20:00 +15°C° 0.1 mm 2 m/s 737 mmHg 90%
21:00 +13°C° 0 mm 3 m/s 737 mmHg 91%
22:00 +12°C° 0 mm 3 m/s 737 mmHg 92%
23:00 +11°C° 0 mm 3 m/s 737 mmHg 93%

13 Iulie, Luni

Timp Temperatura Precipitaţii Vânt Presiune Umiditate
00:00 +11°C° 0 mm 3 m/s 737 mmHg 94%
01:00 +11°C° 0 mm 3 m/s 737 mmHg 94%
02:00 +10°C° 0 mm 3 m/s 737 mmHg 94%
03:00 +10°C° 0 mm 3 m/s 737 mmHg 95%
04:00 +10°C° 0 mm 3 m/s 737 mmHg 95%
05:00 +9°C° 0 mm 3 m/s 737 mmHg 95%
06:00 +11°C° 0 mm 3 m/s 737 mmHg 91%
07:00 +12°C° 0 mm 4 m/s 737 mmHg 87%
08:00 +14°C° 0 mm 4 m/s 737 mmHg 84%
09:00 +15°C° 0.1 mm 4 m/s 737 mmHg 78%
10:00 +16°C° 0.1 mm 5 m/s 737 mmHg 73%
11:00 +17°C° 0.1 mm 5 m/s 737 mmHg 67%
12:00 +17°C° 0.2 mm 5 m/s 737 mmHg 67%
13:00 +17°C° 0.2 mm 5 m/s 737 mmHg 67%
14:00 +17°C° 0.2 mm 5 m/s 737 mmHg 68%
15:00 +18°C° 0.1 mm 4 m/s 736 mmHg 69%
16:00 +18°C° 0.1 mm 4 m/s 736 mmHg 70%
17:00 +18°C° 0.1 mm 4 m/s 736 mmHg 71%
18:00 +17°C° 0 mm 4 m/s 736 mmHg 76%
19:00 +16°C° 0 mm 3 m/s 736 mmHg 80%
20:00 +15°C° 0 mm 2 m/s 736 mmHg 85%
21:00 +14°C° 0 mm 2 m/s 736 mmHg 87%
22:00 +13°C° 0 mm 2 m/s 736 mmHg 88%
23:00 +12°C° 0 mm 2 m/s 736 mmHg 90%
Arată mai mult